Location: Bucquoy
(50.1391°N, 2.7097°E)
Time: 21:36:55
(UTC+00:00)

ADEOS II - Pass Details

Date: 06 May 2021
Orbit: 799 x 801 km, 98.6° (Epoch: 21 June)

Event Time Altitude Azimuth Distance (km) Brightness Sun altitude
Rises 01:25:25 0° 20° (NNE) 3,322 6.9 -19.8°
Reaches altitude 10° 01:27:57 10° 29° (NNE) 2,386 5.8 -19.6°
Maximum altitude 01:32:49 37° 96° (E) 1,237 3.2 -19.3°
Enters shadow 01:36:13 18° 154° (SSE) 1,888 3.7 -19.0°
